Starlink 4634

operational
NORAD ID: 53967 Int'l Des: 2022-125 Owner: SPXS Country: US Constellation: starlink
LEOCIRCULAR

Über Starlink 4634

Beschreibung wird geladen...

Live-Position

3D-Globus wird geladen...

Nächste Überflüge

Höhenverlauf

Altitude vs Time

uPlot chart will show altitude changes over time

Zweizeiliger Elementsatz

1 53967U 22125D 25258.10076253 .00000330 00000-0 38838-4 0 9998
2 53967 53.2177 292.4095 0001283 82.5774 277.5364 15.08843032162811
Epoch: 15. Sept. 2025 • Age: 11 hours

Aktueller Status

Höhe 540.7 km
Geschwindigkeit 7.60 km/s
Subsatellitenpunkt 29.30°N, 114.5°E
Startdatum 5. Okt. 2022
Alter 2.9 years
Typ internet

Technische Details

Klassifizierung Payload
Masse 305.00 kg
Trockenmasse 290.00 kg
Gesamtmasse 305.00 kg
Länge 0.20 m
Durchmesser 2.80 m
Spannweite 9.00 m
Form Box + pan
Hersteller SPXS
Bus-Typ Starlink
Phasenstatus In Orbit
Besitzer/Staat SPXS/US

Große Konstellationen

Loading constellations...